TimeCST,TemperatureF,Dew PointF,Humidity,Sea Level PressureIn,VisibilityMPH,Wind Direction,Wind SpeedMPH,Gust SpeedMPH,PrecipitationIn,Events,Conditions,WindDirDegrees,DateUTC
12:58 AM,30.0,23.7,77,30.32,10.0,SW,4.6,-,N/A,,Clear,230,2013-12-26 06:58:00
1:58 AM,31.1,26.6,83,30.34,10.0,West,5.8,-,N/A,,Clear,270,2013-12-26 07:58:00
2:20 AM,32.0,30.2,93,30.33,10.0,WNW,6.9,-,N/A,,Mostly Cloudy,300,2013-12-26 08:20:00
2:36 AM,32.0,28.4,87,30.34,10.0,NW,6.9,-,N/A,,Scattered Clouds,320,2013-12-26 08:36:00
2:58 AM,32.0,29.1,89,30.36,10.0,NW,6.9,-,N/A,,Clear,320,2013-12-26 08:58:00
3:09 AM,32.0,30.2,93,30.34,10.0,NW,6.9,-,N/A,,Mostly Cloudy,320,2013-12-26 09:09:00
3:24 AM,32.0,30.2,93,30.34,10.0,NW,6.9,-,N/A,,Overcast,310,2013-12-26 09:24:00
3:58 AM,31.6,28.9,90,30.36,10.0,NW,5.8,-,N/A,,Mostly Cloudy,310,2013-12-26 09:58:00
4:17 AM,32.0,28.4,87,30.35,10.0,NW,4.6,-,N/A,,Scattered Clouds,310,2013-12-26 10:17:00
4:58 AM,30.4,28.4,92,30.38,10.0,West,2.3,-,N/A,,Clear,280,2013-12-26 10:58:00
5:58 AM,28.6,28.2,99,30.40,10.0,SW,3.5,-,N/A,,Clear,230,2013-12-26 11:58:00
6:58 AM,26.6,26.4,99,30.41,10.0,Calm,Calm,-,N/A,,Clear,0,2013-12-26 12:58:00
7:58 AM,27.9,27.7,99,30.42,10.0,West,1.2,-,N/A,,Clear,270,2013-12-26 13:58:00
8:58 AM,36.1,30.2,79,30.44,10.0,Variable,2.3,-,N/A,,Clear,0,2013-12-26 14:58:00
9:58 AM,37.2,29.8,75,30.46,10.0,Variable,2.3,-,N/A,,Clear,0,2013-12-26 15:58:00
10:58 AM,38.5,28.0,66,30.45,10.0,Calm,Calm,-,N/A,,Partly Cloudy,0,2013-12-26 16:58:00
11:58 AM,40.3,27.7,61,30.43,10.0,SE,3.5,-,N/A,,Partly Cloudy,130,2013-12-26 17:58:00
12:58 PM,41.4,25.2,53,30.40,10.0,Variable,1.2,-,N/A,,Clear,0,2013-12-26 18:58:00
1:58 PM,42.4,23.7,48,30.38,10.0,Variable,2.3,-,N/A,,Clear,0,2013-12-26 19:58:00
2:58 PM,42.4,24.4,49,30.39,10.0,NNE,2.3,-,N/A,,Clear,30,2013-12-26 20:58:00
3:58 PM,41.7,23.5,49,30.39,10.0,North,2.3,-,N/A,,Clear,10,2013-12-26 21:58:00
4:58 PM,37.9,24.8,59,30.40,10.0,NNE,4.6,-,N/A,,Clear,20,2013-12-26 22:58:00
5:58 PM,36.3,25.0,63,30.40,10.0,ENE,2.3,-,N/A,,Clear,70,2013-12-26 23:58:00
6:58 PM,34.9,24.6,66,30.40,10.0,ESE,3.5,-,N/A,,Clear,110,2013-12-27 00:58:00
7:58 PM,33.1,24.8,72,30.41,10.0,Calm,Calm,-,N/A,,Clear,0,2013-12-27 01:58:00
8:58 PM,31.5,25.3,78,30.40,10.0,SE,3.5,-,N/A,,Clear,140,2013-12-27 02:58:00
9:58 PM,31.1,25.2,79,30.39,10.0,SSE,4.6,-,N/A,,Clear,150,2013-12-27 03:58:00
10:58 PM,30.2,23.9,77,30.41,10.0,West,2.3,-,N/A,,Clear,280,2013-12-27 04:58:00
11:58 PM,29.5,24.4,81,30.41,10.0,West,2.3,-,N/A,,Clear,260,2013-12-27 05:58:00